Regional Weather Roundup
Issued by NWS

Home | Current Version | Previous Version | Graphics & Text | Print | Product List | Glossary On
Versions: 1 2 3 4 5 6 7 8 9 10 11 12 13 14 15 16 17 18 19 20 21 22 23 24 25 26 27 28 29 30 31 32 33 34 35 36 37 38 39 40 41 42 43 44 45 46 47 48 49 50
000
ASUS43 KFSD 201710
RWRSD

WEATHER ROUNDUP FOR SOUTH DAKOTA
NATIONAL WEATHER SERVICE SIOUX FALLS SD
1200 PM CDT SUN APR 20 2014

NOTE: "FAIR" INDICATES FEW OR NO CLOUDS BELOW 12,000 FEET WITH NO
SIGNIFICANT WEATHER AND/OR OBSTRUCTIONS TO VISIBILITY.


SDZ001>005-009-010-012>017-201800-
NORTHWEST AND NORTH CENTRAL SOUTH DAKOTA

CITY           SKY/WX    TMP DP  RH WIND       PRES   REMARKS
BUFFALO          N/A     67  36  31 W12       29.88R
FAITH            N/A     65  38  36 S13       29.92S
MOBRIDGE       SUNNY     67  28  23 S16       29.93F
$$

SDZ012>016-024>037-041>051-057-063-072>074-201800-
SOUTHWEST AND SOUTH CENTRAL SOUTH DAKOTA

CITY           SKY/WX    TMP DP  RH WIND       PRES   REMARKS
RAPID CTY ARPT SUNNY     67  38  34 N7        29.92S
PIERRE         SUNNY     69  30  23 SE18      29.92F
CUSTER         SUNNY     66  24  20 SW9       29.99R
ELLSWORTH AFB  SUNNY     64  39  39 N7        29.93R
PHILIP         SUNNY     70  40  33 S13G21    29.91F
PINE RIDGE     SUNNY     71  35  26 W13       29.95S
SPEARFISH      FAIR      68  36  30 NW5       29.96R
WINNER         FAIR      72  31  22 S12       29.97S
$$

SDZ004>011-016>023-039-040-201800-
NORTHEAST SOUTH DAKOTA

CITY           SKY/WX    TMP DP  RH WIND       PRES   REMARKS
ABERDEEN       SUNNY     69  31  24 S12       29.98F
WATERTOWN      SUNNY     68  29  23 S10       30.00F
SISSETON         N/A     63  37  38 SE13      30.00F
$$

SDZ017-020-022-023-036>040-048>070-201800-
SOUTHEAST SOUTH DAKOTA

CITY           SKY/WX    TMP DP  RH WIND       PRES   REMARKS
SIOUX FALLS    MOSUNNY   72  37  28 E16       29.98F
HURON          SUNNY     71  26  18 SE10      29.98F
CHAMBERLAIN      N/A     70  29  21 SE14      29.98S
MITCHELL       SUNNY     73  30  20 SE15      29.98S
YANKTON        MOSUNNY   68  45  42 E10       29.98S
$$

ABBREVIATIONS USED IN REMARKS
   TC - TEMPERATURE IN CELSIUS
  WCI - WIND CHILL INDEX
   HX - HEAT INDEX
  VSB - VISIBILITY




USA.gov is the U.S. government's official web portal to all federal, state and local government web resources and services.